Home   Weather   Hanoi   Past weeks
Flag for Vietnam

Past Weather in Hanoi, Vietnam — Yesterday and Last 2 Weeks

Now
66 °F

Passing clouds.


Feels Like: 66 °F
Forecast: 71 / 62 °F
Wind: 7 mph from East

Location: Ha Noi Airport

Current Time: Mar 24, 2019 at 12:02:19 am

Latest Report: Mar 23, 2019 at 11:30 pm


Visibility: N/A

Pressure: 30.07 "Hg

Humidity: 68%

Dew Point: 55 °F

Location of HanoiLocation

Past Weather in Hanoi — Graph

°F

Hanoi Temperature Yesterday

Maximum temperature yesterday: 79 °F (at 12:00 am)
Minimum temperature yesterday: 66 °F (at 9:00 pm)
Average temperature yesterday: 73 °F

High & Low Weather Summary for the Past Weeks

 TemperatureHumidityPressure
High88 °F (Mar 21, 2:30 pm)100% (Mar 9, 1:00 am)30.18 "Hg (Mar 9, 1:00 am)
Low63 °F (Mar 9, 1:30 am)51% (Mar 11, 2:00 pm)29.65 "Hg (Mar 21, 4:00 pm)
Average71 °F84%29.94 "Hg
* Reported Mar 8 11:00 pm — Mar 23 11:00 pm, Hanoi. Weather by CustomWeather, © 2019

Note: Actual official high and low records may vary slightly from our data, if they occured in-between our weather recording intervals... More about our weather records

Advertising

Hanoi Weather History for the Previous 24 Hours

Scroll right to see more
 ConditionsComfort  
Time TempWeatherWind HumidityBarometerVisibility
11:00 pm
Sat, Mar 23
66 °FPassing clouds.7 mph68%30.04 "HgN/A
10:30 pm66 °FPassing clouds.8 mph68%30.04 "HgN/A
10:00 pm66 °FPassing clouds.8 mph68%30.04 "HgN/A
9:30 pm66 °FPassing clouds.9 mph68%30.04 "HgN/A
9:00 pm66 °FPassing clouds.10 mph68%30.04 "HgN/A
8:30 pm68 °FPassing clouds.10 mph64%30.01 "HgN/A
8:00 pm68 °FPassing clouds.12 mph64%30.01 "HgN/A
7:00 pm68 °FPassing clouds.12 mph64%29.98 "HgN/A
6:30 pm68 °FPassing clouds.10 mph69%29.95 "HgN/A
6:00 pm68 °FPartly sunny.14 mph69%29.95 "HgN/A
5:30 pm70 °FPartly sunny.13 mph64%29.95 "HgN/A
5:00 pm70 °FPartly sunny.14 mph64%29.92 "HgN/A
4:30 pm70 °FPartly sunny.15 mph64%29.92 "HgN/A
4:00 pm70 °FPartly sunny.15 mph64%29.92 "HgN/A
3:30 pm70 °FPartly sunny.16 mph64%29.92 "HgN/A
3:00 pm72 °FPartly sunny.20 mph65%29.92 "HgN/A
2:30 pm72 °FPartly sunny.18 mph65%29.92 "HgN/A
2:00 pm73 °FPartly sunny.20 mph61%29.92 "HgN/A
1:30 pm72 °FPartly sunny.17 mph69%29.95 "HgN/A
1:00 pm72 °FPartly sunny.16 mph69%29.95 "HgN/A
12:30 pm72 °FPartly sunny.16 mph69%29.98 "HgN/A
12:00 pm72 °FPartly sunny.18 mph69%29.98 "HgN/A
11:30 am73 °FPartly sunny.13 mph74%29.98 "HgN/A
10:30 am73 °FPartly sunny.15 mph74%30.01 "Hg4 mi
10:00 am73 °FFog.15 mph94%30.01 "Hg3 mi
9:30 am75 °FFog.14 mph94%29.98 "Hg2 mi
9:00 am79 °FFog.6 mph100%29.98 "Hg2 mi
8:30 am79 °FFog.3 mph100%29.95 "Hg2 mi
7:30 am79 °FFog.6 mph100%29.92 "Hg2 mi
7:00 am77 °FFog.5 mph100%29.92 "Hg2 mi
6:30 am77 °FFog.5 mph100%29.92 "Hg2 mi
6:00 am77 °FFog.6 mph100%29.89 "Hg3 mi
5:30 am77 °FPartly cloudy.5 mph100%29.86 "Hg4 mi
5:00 am79 °FPassing clouds.7 mph100%29.86 "Hg4 mi
4:30 am77 °FPassing clouds.6 mph100%29.86 "Hg4 mi
4:00 am77 °FPassing clouds.6 mph100%29.83 "Hg4 mi
3:30 am77 °FFog.5 mph100%29.83 "Hg3 mi
3:00 am79 °FPassing clouds.8 mph100%29.83 "Hg4 mi
2:30 am79 °FPartly cloudy.7 mph100%29.83 "Hg4 mi
2:00 am79 °FPassing clouds.7 mph100%29.83 "Hg4 mi
1:30 am79 °FPassing clouds.9 mph94%29.83 "Hg5 mi
1:00 am79 °FPassing clouds.13 mph89%29.83 "Hg5 mi
12:30 am79 °FPassing clouds.10 mph89%29.86 "Hg4 mi
12:00 am79 °FPassing clouds.10 mph89%29.86 "Hg5 mi
Weather by CustomWeather, © 2019

See weather overview